COSMOS 2251 DEB, 33972

Orbit data source: Space-Track

COSMOS 2251 DEB, 33972 is space debris in LEO originally from a launch on Wed, 16 Jun 1993 UTC launched from the Plesetsk Missile And Space Complex (PKMTR). The debris from Iridium 33, an American commercial communications satellite, has been tracked extensively since its accidental collision with the defunct Russian satellite Cosmos 2251 in 2009. This event, occurring at high speed in low Earth orbit (LEO), generated thousands of pieces of space debris, significantly increasing the risk of further collisions. The Iridium 33 debris cloud has impacted space traffic management and orbital debris mitigation strategies, making it a subject of ongoing study in space situational awareness.

Loading next visibility...
Identifier
33972, 1993-036FF
Orbit
LEO
Country
Flag of CISCIS
Related business
Manufacturer
Unknown
Mission
Spacecraft
Bus & Motor
Unknown
Mass
Unknown
Launch date (UTC)
1993-06-16 (33 years ago)
Launch vehicle
Unknown
Launch site
Plesetsk Missile And Space Complex (PKMTR)
Object type
Payload
Rocket body
Debris
Shape & HBR
Unknown shape, 0.1 m
Radar Cross Section
Small (<0.1 m²)

Expand to show TLE details & history
Last TLE update: 8 hours ago

TLE from 8 hours ago
0 COSMOS 2251 DEB
1 33972U 93036FF  26120.48133963  .00004717  00000-0  14374-2 0  9993
2 33972  73.9934 294.7727 0124422  71.3229 320.7993 14.37849644890671
Epoch: 2026-04-30T11:33Z
TLE epoch observation values (Epoch: 2026-04-30T11:33:07.744Z)
Latitude
29.93243°
Longitude
-87.48127°
Altitude
700.599 km
Speed
7.545 km/s
True Right ascension
20h 16m 54s
True Declination
29° 46' 58"
Sunlit
Object was in daylight at epoch
Visualization orbit readout
Latitude
Unknown
Longitude
Unknown
Altitude
Unknown
Speed
Unknown
Apparent Right ascension
Unknown
Apparent Declination
Unknown
Sunlit
N/A
Visualization observer readout
Local Sidereal Time
02:40:19
Azimuth
Unknown
Elevation
Unknown
Doppler factor
Unknown
Orbital elements
Apogee altitude
852.092 km
Perigee altitude
674.383 km
Semi-major axis
7,141.374 km
Eccentricity
0.01244
Inclination
73.9934°
RAAN
294.7727°
Arg. of periapsis
71.3229°
True anomaly
319.88721°
Mean anomaly
320.7993°
Eccentric anomaly
320.34436°
Mean motion
3.59642 °/min
Orbital period
100.1 mins
BSTAR
0.0014374
Loading maneuver chart data...
Computing Atmospheric mass density...

Documentation

Showing up to 5 results
|